Weather History for Bangkok (Don Mueang), Thailand

Change the Weather History Date:

Thursday, November 15, 2012

  Actual Average Record
Temperature  
Mean Temperature 87 °F -  
Max Temperature 95 °F 87 °F 96 °F (2004)
Min Temperature 79 °F 72 °F 69 °F (2001)
Cooling Degree Days 22    
Growing Degree Days 37 (Base 50)    
Moisture  
Dew Point 74 °F    
Average Humidity 66    
Maximum Humidity 89    
Minimum Humidity 43    
Precipitation  
Precipitation 0.00 in 0.03 in - ()
Sea Level Pressure  
Sea Level Pressure 29.81 in    
Wind  
Wind Speed 3 mph ()    
Max Wind Speed 12 mph    
Max Gust Speed -    
Visibility 5.8 miles    
Events      
Averages and records for this station are not official NWS values.
T = Trace of Precipitation, MM = Missing Value Source: Averaged Metar Reports

Daily Weather History Graph

Daily Weather History Graph

Search for Another Location

Airport:

Trip Planner

Search our weather history database for the weather conditions in past years. The results will help you decide how hot, cold, wet, or windy it might be!

Date:

Astronomy

Nov. 15, 2012 Rise Set
Actual Time 6:17 AM ICT 5:46 PM ICT
Civil Twilight 5:55 AM ICT 6:09 PM ICT
Nautical Twilight 5:29 AM ICT 6:34 PM ICT
Astronomical Twilight 5:03 AM ICT 7:00 PM ICT
Moon 7:29 AM ICT (11/15) 7:14 PM ICT (11/15)
Length of Visible Light 12h 13m
Length of Day
11h 29m
New Moon, 3% of the Moon is Illuminated
Nov 15
New Moon
Nov 20
First Quarter
Nov 28
Full
Dec 6
Last Quarter
Dec 13
New

Hourly Weather History & Observations

Time (ICT) Temp. Heat Index Dew Point Humidity Pressure Visibility Wind Dir Wind Speed Gust Speed Precip Events Conditions
12:00 AM 82.4 °F 89.5 °F 75.2 °F 79% 29.80 in 6.2 mi Calm Calm - N/A   Mostly Cloudy
12:30 AM 82.4 °F 89.5 °F 75.2 °F 79% 29.80 in 6.2 mi Calm Calm - N/A   Mostly Cloudy
1:00 AM 81 °F - 74 °F 75% 29.83 in 6 mi East 2.3 mph - -   Scattered Clouds
1:00 AM 80.6 °F 86.2 °F 75.2 °F 84% 29.80 in 6.2 mi East 2.3 mph - N/A   Mostly Cloudy
1:30 AM 82.4 °F 88.2 °F 73.4 °F 74% 29.80 in 6.2 mi Calm Calm - N/A   Mostly Cloudy
2:00 AM 80.6 °F 85.4 °F 73.4 °F 79% 29.80 in 6.2 mi Calm Calm - N/A   Mostly Cloudy
2:30 AM 80.6 °F 85.4 °F 73.4 °F 79% 29.80 in 5.6 mi Calm Calm - N/A   Mostly Cloudy
3:00 AM 80.6 °F 85.4 °F 73.4 °F 79% 29.77 in 5.6 mi South 2.3 mph - N/A   Mostly Cloudy
3:30 AM 80.6 °F 85.4 °F 73.4 °F 79% 29.77 in 5.6 mi Calm Calm - N/A   Scattered Clouds
4:00 AM 82.4 °F 90.9 °F 77.0 °F 84% 29.77 in 5.6 mi Calm Calm - N/A   Scattered Clouds
4:30 AM 82.4 °F 90.9 °F 77.0 °F 84% 29.77 in 5.6 mi Calm Calm - N/A   Scattered Clouds
5:00 AM 82.4 °F 90.9 °F 77.0 °F 84% 29.77 in 5.0 mi WNW 5.8 mph - N/A   Scattered Clouds
5:30 AM 82.4 °F 90.9 °F 77.0 °F 84% 29.80 in 4.3 mi NNW 6.9 mph - N/A   Scattered Clouds
6:00 AM 82.4 °F 90.9 °F 77.0 °F 84% 29.80 in 4.3 mi NNW 4.6 mph - N/A   Scattered Clouds
6:30 AM 80.6 °F 87.1 °F 77.0 °F 89% 29.80 in 3.7 mi NNW 6.9 mph - N/A   Mostly Cloudy
7:00 AM 82 °F - 75 °F 74% 29.83 in 4 mi NNE 5.8 mph - -   Mist
7:00 AM 82.4 °F 90.9 °F 77.0 °F 84% 29.83 in 3.7 mi NNE 5.8 mph - N/A   Mostly Cloudy
7:30 AM 82.4 °F 89.5 °F 75.2 °F 79% 29.83 in 5.0 mi North 2.3 mph - N/A   Mostly Cloudy
8:00 AM 84.2 °F 92.3 °F 75.2 °F 74% 29.83 in 5.0 mi North 6.9 mph - N/A   Mostly Cloudy
8:30 AM 84.2 °F 90.9 °F 73.4 °F 70% 29.86 in 5.0 mi North 4.6 mph - N/A   Mostly Cloudy
9:00 AM 86.0 °F 95.1 °F 75.2 °F 70% 29.86 in 5.0 mi NNE 4.6 mph - N/A   Mostly Cloudy
9:30 AM 86.0 °F 95.1 °F 75.2 °F 70% 29.86 in 5.6 mi North 4.6 mph - N/A   Mostly Cloudy
10:00 AM 89.6 °F 99.8 °F 75.2 °F 62% 29.89 in 6.2 mi North 4.6 mph - N/A   Mostly Cloudy
10:30 AM 89.6 °F 99.8 °F 75.2 °F 62% 29.89 in 6.2 mi Calm Calm - N/A   Mostly Cloudy
11:00 AM 91.4 °F 102.5 °F 75.2 °F 59% 29.86 in 6.2 mi North 6.9 mph - N/A   Mostly Cloudy
11:30 AM 91.4 °F 102.5 °F 75.2 °F 59% 29.86 in 6.2 mi NNW 5.8 mph - N/A   Scattered Clouds
12:00 PM 91.4 °F 102.5 °F 75.2 °F 59% 29.83 in 6.2 mi NNE 8.1 mph - N/A   Scattered Clouds
12:30 PM 93.2 °F 105.0 °F 75.2 °F 56% 29.83 in 6.2 mi NNW 3.5 mph - N/A   Scattered Clouds
1:00 PM 94 °F - 74 °F 43% 29.83 in 6 mi WNW 3.5 mph - -   Partly Cloudy
1:00 PM 93.2 °F 102.4 °F 73.4 °F 52% 29.83 in 6.2 mi WNW 3.5 mph - N/A   Scattered Clouds
1:30 PM 93.2 °F 102.4 °F 73.4 °F 52% 29.80 in 6.2 mi East 3.5 mph - N/A   Mostly Cloudy
2:00 PM 95.0 °F 103.2 °F 71.6 °F 47% 29.80 in 6.2 mi NNW 8.1 mph - N/A   Mostly Cloudy
2:30 PM 95.0 °F 101.3 °F 69.8 °F 44% 29.77 in 6.2 mi NNW 8.1 mph - N/A   Mostly Cloudy
3:00 PM 95.0 °F 101.3 °F 69.8 °F 44% 29.77 in 6.2 mi North 11.5 mph - N/A   Mostly Cloudy
3:30 PM 95.0 °F 101.3 °F 69.8 °F 44% 29.77 in 6.2 mi NNE 11.5 mph - N/A   Mostly Cloudy
4:00 PM 95.0 °F 103.2 °F 71.6 °F 47% 29.77 in 6.2 mi North 11.5 mph - N/A   Mostly Cloudy
4:30 PM 93.2 °F 102.4 °F 73.4 °F 52% 29.74 in 6.2 mi North 8.1 mph - N/A   Mostly Cloudy
5:00 PM 93.2 °F 100.5 °F 71.6 °F 49% 29.77 in 6.2 mi NE 8.1 mph - N/A   Scattered Clouds
5:30 PM 93.2 °F 100.5 °F 71.6 °F 49% 29.77 in 6.2 mi NE 8.1 mph - N/A   Scattered Clouds
6:00 PM 91.4 °F 98.4 °F 71.6 °F 52% 29.77 in 6.2 mi NE 4.6 mph - N/A   Mostly Cloudy
6:30 PM 89.6 °F 96.2 °F 71.6 °F 55% 29.77 in 5.6 mi North 5.8 mph - N/A   Mostly Cloudy
7:00 PM 90 °F - 73 °F 49% 29.81 in 6 mi North 4.6 mph - -   Partly Cloudy
7:00 PM 89.6 °F 98.2 °F 73.4 °F 59% 29.80 in 6.2 mi North 4.6 mph - N/A   Mostly Cloudy
7:30 PM 87.8 °F 95.6 °F 73.4 °F 62% 29.83 in 6.2 mi North 5.8 mph - N/A   Mostly Cloudy
8:00 PM 87.8 °F 95.6 °F 73.4 °F 62% 29.83 in 6.2 mi North 8.1 mph - N/A   Mostly Cloudy
8:30 PM 87.8 °F 95.6 °F 73.4 °F 62% 29.83 in 6.2 mi ENE 3.5 mph - N/A   Mostly Cloudy
9:00 PM 86.0 °F 93.4 °F 73.4 °F 66% 29.86 in 6.2 mi ENE 3.5 mph - N/A   Mostly Cloudy
9:30 PM 86.0 °F 93.4 °F 73.4 °F 66% 29.86 in 6.2 mi North 5.8 mph - N/A   Mostly Cloudy
10:00 PM 86.0 °F 93.4 °F 73.4 °F 66% 29.86 in 6.2 mi North 6.9 mph - N/A   Mostly Cloudy
10:30 PM 86.0 °F 93.4 °F 73.4 °F 66% 29.86 in 6.2 mi North 8.1 mph - N/A   Mostly Cloudy
11:00 PM 86.0 °F 93.4 °F 73.4 °F 66% 29.86 in 6.2 mi North 4.6 mph - N/A   Mostly Cloudy
11:30 PM 86.0 °F 93.4 °F 73.4 °F 66% 29.86 in 6.2 mi North 5.8 mph - N/A   Mostly Cloudy